owner,sensor,date,latitude,longitude,vertical_datum,mass_concentration_of_oxygen_in_sea_water,qcFlag 
SCCF RECON,ioos:station:SCCF:13:1,2013-07-01T00:00:00Z,26.5255,-82.0032,1.0,-9999.0,1111122 
SCCF RECON,ioos:station:SCCF:13:1,2013-07-01T01:00:00Z,26.5255,-82.0032,1.0,-9999.0,1111122 
SCCF RECON,ioos:station:SCCF:13:1,2013-07-01T02:00:00Z,26.5255,-82.0032,1.0,-9999.0,1111122 
SCCF RECON,ioos:station:SCCF:13:1,2013-07-01T03:00:00Z,26.5255,-82.0032,1.0,-9999.0,1111122 
SCCF RECON,ioos:station:SCCF:13:1,2013-07-01T04:00:00Z,26.5255,-82.0032,2.52,4.06,1111122 
SCCF RECON,ioos:station:SCCF:13:1,2013-07-01T05:00:00Z,26.5255,-82.0032,1.0,-9999.0,1111122 
SCCF RECON,ioos:station:SCCF:13:1,2013-07-01T06:00:00Z,26.5255,-82.0032,1.0,-9999.0,1111122 
SCCF RECON,ioos:station:SCCF:13:1,2013-07-01T07:00:00Z,26.5255,-82.0032,1.0,-9999.0,1111122 
SCCF RECON,ioos:station:SCCF:13:1,2013-07-01T08:00:00Z,26.5255,-82.0032,1.0,-9999.0,1111122 
SCCF RECON,ioos:station:SCCF:13:1,2013-07-01T09:00:00Z,26.5255,-82.0032,2.716,4.66,1111122 
SCCF RECON,ioos:station:SCCF:13:1,2013-07-01T10:00:00Z,26.5255,-82.0032,1.0,-9999.0,1111122 
SCCF RECON,ioos:station:SCCF:13:1,2013-07-01T11:00:00Z,26.5255,-82.0032,1.0,-9999.0,1111122 
SCCF RECON,ioos:station:SCCF:13:1,2013-07-01T12:00:00Z,26.5255,-82.0032,1.0,-9999.0,1111122 
SCCF RECON,ioos:station:SCCF:13:1,2013-07-01T13:00:00Z,26.5255,-82.0032,1.0,-9999.0,1111122 
SCCF RECON,ioos:station:SCCF:13:1,2013-07-01T14:00:00Z,26.5255,-82.0032,1.0,-9999.0,1111122 
SCCF RECON,ioos:station:SCCF:13:1,2013-07-01T15:00:00Z,26.5255,-82.0032,1.0,-9999.0,1111122 
SCCF RECON,ioos:station:SCCF:13:1,2013-07-01T16:00:00Z,26.5255,-82.0032,2.677,4.86,1111122 
SCCF RECON,ioos:station:SCCF:13:1,2013-07-01T17:00:00Z,26.5255,-82.0032,1.0,-9999.0,1111122 
SCCF RECON,ioos:station:SCCF:13:1,2013-07-01T18:00:00Z,26.5255,-82.0032,1.0,-9999.0,1111122 
SCCF RECON,ioos:station:SCCF:13:1,2013-07-01T19:00:00Z,26.5255,-82.0032,1.0,-9999.0,1111122 
SCCF RECON,ioos:station:SCCF:13:1,2013-07-01T20:00:00Z,26.5255,-82.0032,1.0,-9999.0,1111122 
SCCF RECON,ioos:station:SCCF:13:1,2013-07-01T21:00:00Z,26.5255,-82.0032,1.0,-9999.0,1111122 
SCCF RECON,ioos:station:SCCF:13:1,2013-07-01T22:00:00Z,26.5255,-82.0032,1.0,-9999.0,1111122 
SCCF RECON,ioos:station:SCCF:13:1,2013-07-01T23:00:00Z,26.5255,-82.0032,1.0,-9999.0,1111122 
SCCF RECON,ioos:station:SCCF:13:1,2013-07-02T00:00:00Z,26.5255,-82.0032,1.0,-9999.0,1111122 
SCCF RECON,ioos:station:SCCF:13:1,2013-07-02T01:00:00Z,26.5255,-82.0032,1.0,-9999.0,1111122 
SCCF RECON,ioos:station:SCCF:13:1,2013-07-02T02:00:00Z,26.5255,-82.0032,2.61,3.53,1111122 
SCCF RECON,ioos:station:SCCF:13:1,2013-07-02T03:00:00Z,26.5255,-82.0032,2.59,3.04,1111122 
SCCF RECON,ioos:station:SCCF:13:1,2013-07-02T04:00:00Z,26.5255,-82.0032,1.0,-9999.0,1111122 
SCCF RECON,ioos:station:SCCF:13:1,2013-07-02T05:00:00Z,26.5255,-82.0032,1.0,-9999.0,1111122 
SCCF RECON,ioos:station:SCCF:13:1,2013-07-02T06:00:00Z,26.5255,-82.0032,1.0,-9999.0,1111122 
SCCF RECON,ioos:station:SCCF:13:1,2013-07-02T07:00:00Z,26.5255,-82.0032,1.0,-9999.0,1111122 
SCCF RECON,ioos:station:SCCF:13:1,2013-07-02T08:00:00Z,26.5255,-82.0032,1.0,-9999.0,1111122 
SCCF RECON,ioos:station:SCCF:13:1,2013-07-02T09:00:00Z,26.5255,-82.0032,2.45,4.74,1111122 
SCCF RECON,ioos:station:SCCF:13:1,2013-07-02T10:00:00Z,26.5255,-82.0032,1.0,-9999.0,1111122 
SCCF RECON,ioos:station:SCCF:13:1,2013-07-02T11:00:00Z,26.5255,-82.0032,1.0,-9999.0,1111122 
SCCF RECON,ioos:station:SCCF:13:1,2013-07-02T12:00:00Z,26.5255,-82.0032,2.67,2.74,1111122 
SCCF RECON,ioos:station:SCCF:13:1,2013-07-02T13:00:00Z,26.5255,-82.0032,1.0,-9999.0,1111122 
SCCF RECON,ioos:station:SCCF:13:1,2013-07-02T14:00:00Z,26.5255,-82.0032,1.0,-9999.0,1111122 
SCCF RECON,ioos:station:SCCF:13:1,2013-07-02T15:00:00Z,26.5255,-82.0032,1.0,-9999.0,1111122 
SCCF RECON,ioos:station:SCCF:13:1,2013-07-02T16:00:00Z,26.5255,-82.0032,2.549,4.78,1111122 
SCCF RECON,ioos:station:SCCF:13:1,2013-07-02T17:00:00Z,26.5255,-82.0032,1.0,-9999.0,1111122 
SCCF RECON,ioos:station:SCCF:13:1,2013-07-02T18:00:00Z,26.5255,-82.0032,1.0,-9999.0,1111122 
SCCF RECON,ioos:station:SCCF:13:1,2013-07-02T19:00:00Z,26.5255,-82.0032,1.0,-9999.0,1111122 
SCCF RECON,ioos:station:SCCF:13:1,2013-07-02T20:00:00Z,26.5255,-82.0032,1.0,-9999.0,1111122 
SCCF RECON,ioos:station:SCCF:13:1,2013-07-02T21:00:00Z,26.5255,-82.0032,1.0,-9999.0,1111122 
SCCF RECON,ioos:station:SCCF:13:1,2013-07-02T22:00:00Z,26.5255,-82.0032,1.0,-9999.0,1111122 
SCCF RECON,ioos:station:SCCF:13:1,2013-07-02T23:00:00Z,26.5255,-82.0032,1.0,-9999.0,1111122 
SCCF RECON,ioos:station:SCCF:13:1,2013-07-03T00:00:00Z,26.5255,-82.0032,1.0,-9999.0,1111122 
SCCF RECON,ioos:station:SCCF:13:1,2013-07-03T01:00:00Z,26.5255,-82.0032,1.0,-9999.0,1111122 
SCCF RECON,ioos:station:SCCF:13:1,2013-07-03T02:00:00Z,26.5255,-82.0032,1.0,-9999.0,1111122 
SCCF RECON,ioos:station:SCCF:13:1,2013-07-03T03:00:00Z,26.5255,-82.0032,1.0,-9999.0,1111122 
SCCF RECON,ioos:station:SCCF:13:1,2013-07-03T04:00:00Z,26.5255,-82.0032,1.0,-9999.0,1111122 
SCCF RECON,ioos:station:SCCF:13:1,2013-07-03T05:00:00Z,26.5255,-82.0032,1.0,-9999.0,1111122 
SCCF RECON,ioos:station:SCCF:13:1,2013-07-03T06:00:00Z,26.5255,-82.0032,1.0,-9999.0,1111122 
SCCF RECON,ioos:station:SCCF:13:1,2013-07-03T07:00:00Z,26.5255,-82.0032,2.475,4.67,1111122 
SCCF RECON,ioos:station:SCCF:13:1,2013-07-03T08:00:00Z,26.5255,-82.0032,1.0,-9999.0,1111122 
SCCF RECON,ioos:station:SCCF:13:1,2013-07-03T09:00:00Z,26.5255,-82.0032,1.0,-9999.0,1111122 
SCCF RECON,ioos:station:SCCF:13:1,2013-07-03T10:00:00Z,26.5255,-82.0032,1.0,-9999.0,1111122 
SCCF RECON,ioos:station:SCCF:13:1,2013-07-03T11:00:00Z,26.5255,-82.0032,1.0,-9999.0,1111122 
SCCF RECON,ioos:station:SCCF:13:1,2013-07-03T12:00:00Z,26.5255,-82.0032,1.0,-9999.0,1111122 
SCCF RECON,ioos:station:SCCF:13:1,2013-07-03T13:00:00Z,26.5255,-82.0032,1.0,-9999.0,1111122 
SCCF RECON,ioos:station:SCCF:13:1,2013-07-03T14:00:00Z,26.5255,-82.0032,1.0,-9999.0,1111122 
SCCF RECON,ioos:station:SCCF:13:1,2013-07-03T16:00:00Z,26.5255,-82.0032,2.61,5.16,1111122 
SCCF RECON,ioos:station:SCCF:13:1,2013-07-03T17:00:00Z,26.5255,-82.0032,2.52,5.23,1111122 
SCCF RECON,ioos:station:SCCF:13:1,2013-07-03T18:00:00Z,26.5255,-82.0032,2.4,4.72,1111122 
SCCF RECON,ioos:station:SCCF:13:1,2013-07-03T19:00:00Z,26.5255,-82.0032,2.28,6.14,1111122 
SCCF RECON,ioos:station:SCCF:13:1,2013-07-03T20:00:00Z,26.5255,-82.0032,2.24,6.1,1111122 
SCCF RECON,ioos:station:SCCF:13:1,2013-07-03T21:00:00Z,26.5255,-82.0032,2.14,6.29,1111122 
SCCF RECON,ioos:station:SCCF:13:1,2013-07-03T22:00:00Z,26.5255,-82.0032,2.09,6.44,1111122 
SCCF RECON,ioos:station:SCCF:13:1,2013-07-03T23:00:00Z,26.5255,-82.0032,2.187,6.24,1111122 
SCCF RECON,ioos:station:SCCF:13:1,2013-07-04T00:00:00Z,26.5255,-82.0032,2.31,6.25,1111122 
SCCF RECON,ioos:station:SCCF:13:1,2013-07-04T01:00:00Z,26.5255,-82.0032,2.28,6.1,1111122 
SCCF RECON,ioos:station:SCCF:13:1,2013-07-04T02:00:00Z,26.5255,-82.0032,2.329,6.15,1111122 
SCCF RECON,ioos:station:SCCF:13:1,2013-07-04T03:00:00Z,26.5255,-82.0032,2.37,5.85,1111122 
SCCF RECON,ioos:station:SCCF:13:1,2013-07-04T04:00:00Z,26.5255,-82.0032,2.38,4.41,1111122 
SCCF RECON,ioos:station:SCCF:13:1,2013-07-04T05:00:00Z,26.5255,-82.0032,2.455,4.75,1111122 
SCCF RECON,ioos:station:SCCF:13:1,2013-07-04T06:00:00Z,26.5255,-82.0032,2.47,4.72,1111122 
SCCF RECON,ioos:station:SCCF:13:1,2013-07-04T07:00:00Z,26.5255,-82.0032,2.416,4.56,1111122 
SCCF RECON,ioos:station:SCCF:13:1,2013-07-04T08:00:00Z,26.5255,-82.0032,2.32,4.6,1111122 
SCCF RECON,ioos:station:SCCF:13:1,2013-07-04T09:00:00Z,26.5255,-82.0032,2.26,5.29,1111122 
SCCF RECON,ioos:station:SCCF:13:1,2013-07-04T10:00:00Z,26.5255,-82.0032,2.27,5.86,1111122 
SCCF RECON,ioos:station:SCCF:13:1,2013-07-04T11:00:00Z,26.5255,-82.0032,2.32,6.12,1111122 
SCCF RECON,ioos:station:SCCF:13:1,2013-07-04T12:00:00Z,26.5255,-82.0032,2.4,4.74,1111122 
SCCF RECON,ioos:station:SCCF:13:1,2013-07-04T13:00:00Z,26.5255,-82.0032,2.51,3.89,1111122 
SCCF RECON,ioos:station:SCCF:13:1,2013-07-04T14:00:00Z,26.5255,-82.0032,2.57,4.36,1111122 
SCCF RECON,ioos:station:SCCF:13:1,2013-07-04T15:00:00Z,26.5255,-82.0032,2.59,4.99,1111122 
SCCF RECON,ioos:station:SCCF:13:1,2013-07-04T16:00:00Z,26.5255,-82.0032,2.587,4.85,1111122 
SCCF RECON,ioos:station:SCCF:13:1,2013-07-04T17:00:00Z,26.5255,-82.0032,2.59,5.2,1111122 
SCCF RECON,ioos:station:SCCF:13:1,2013-07-04T18:00:00Z,26.5255,-82.0032,2.48,5.86,1111122 
SCCF RECON,ioos:station:SCCF:13:1,2013-07-04T19:00:00Z,26.5255,-82.0032,2.35,5.25,1111122 
SCCF RECON,ioos:station:SCCF:13:1,2013-07-04T20:00:00Z,26.5255,-82.0032,2.257,6.67,1111122 
SCCF RECON,ioos:station:SCCF:13:1,2013-07-04T21:00:00Z,26.5255,-82.0032,2.179,6.43,1111122 
SCCF RECON,ioos:station:SCCF:13:1,2013-07-04T22:00:00Z,26.5255,-82.0032,2.12,6.61,1111122 
SCCF RECON,ioos:station:SCCF:13:1,2013-07-04T23:00:00Z,26.5255,-82.0032,2.08,6.5,1111122 
SCCF RECON,ioos:station:SCCF:13:1,2013-07-05T00:00:00Z,26.5255,-82.0032,2.107,6.21,1111122 
SCCF RECON,ioos:station:SCCF:13:1,2013-07-05T01:00:00Z,26.5255,-82.0032,2.171,6.07,1111122 
SCCF RECON,ioos:station:SCCF:13:1,2013-07-05T02:00:00Z,26.5255,-82.0032,2.262,6.1,1111122 
SCCF RECON,ioos:station:SCCF:13:1,2013-07-05T03:00:00Z,26.5255,-82.0032,2.33,6.11,1111122 
SCCF RECON,ioos:station:SCCF:13:1,2013-07-05T04:00:00Z,26.5255,-82.0032,2.36,6.02,1111122 
SCCF RECON,ioos:station:SCCF:13:1,2013-07-05T05:00:00Z,26.5255,-82.0032,2.39,5.08,1111122 
SCCF RECON,ioos:station:SCCF:13:1,2013-07-05T06:00:00Z,26.5255,-82.0032,2.38,5.07,1111122 
SCCF RECON,ioos:station:SCCF:13:1,2013-07-05T07:00:00Z,26.5255,-82.0032,2.33,5.02,1111122 
SCCF RECON,ioos:station:SCCF:13:1,2013-07-05T08:00:00Z,26.5255,-82.0032,2.28,4.92,1111122 
SCCF RECON,ioos:station:SCCF:13:1,2013-07-05T09:00:00Z,26.5255,-82.0032,2.28,4.88,1111122 
SCCF RECON,ioos:station:SCCF:13:1,2013-07-05T10:00:00Z,26.5255,-82.0032,2.29,4.97,1111122 
SCCF RECON,ioos:station:SCCF:13:1,2013-07-05T11:00:00Z,26.5255,-82.0032,2.29,4.92,1111122 
SCCF RECON,ioos:station:SCCF:13:1,2013-07-05T12:00:00Z,26.5255,-82.0032,2.375,3.9,1111122 
SCCF RECON,ioos:station:SCCF:13:1,2013-07-05T13:00:00Z,26.5255,-82.0032,2.45,4.66,1111122 
SCCF RECON,ioos:station:SCCF:13:1,2013-07-05T14:00:00Z,26.5255,-82.0032,2.52,4.71,1111122 
SCCF RECON,ioos:station:SCCF:13:1,2013-07-05T15:00:00Z,26.5255,-82.0032,2.547,4.7,1111122 
SCCF RECON,ioos:station:SCCF:13:1,2013-07-05T16:00:00Z,26.5255,-82.0032,2.59,5.41,1111122 
SCCF RECON,ioos:station:SCCF:13:1,2013-07-05T17:00:00Z,26.5255,-82.0032,2.629,5.69,1111122 
SCCF RECON,ioos:station:SCCF:13:1,2013-07-05T18:00:00Z,26.5255,-82.0032,2.58,5.64,1111122 
SCCF RECON,ioos:station:SCCF:13:1,2013-07-05T19:00:00Z,26.5255,-82.0032,2.518,5.31,1111122 
SCCF RECON,ioos:station:SCCF:13:1,2013-07-05T20:00:00Z,26.5255,-82.0032,2.31,5.34,1111122 
SCCF RECON,ioos:station:SCCF:13:1,2013-07-05T21:00:00Z,26.5255,-82.0032,2.19,6.5,1111122 
SCCF RECON,ioos:station:SCCF:13:1,2013-07-05T22:00:00Z,26.5255,-82.0032,2.125,6.62,1111122 
SCCF RECON,ioos:station:SCCF:13:1,2013-07-05T23:00:00Z,26.5255,-82.0032,2.05,6.51,1111122 
SCCF RECON,ioos:station:SCCF:13:1,2013-07-06T00:00:00Z,26.5255,-82.0032,2.08,6.12,1111122 
SCCF RECON,ioos:station:SCCF:13:1,2013-07-06T01:00:00Z,26.5255,-82.0032,2.3,6.0,1111122 
SCCF RECON,ioos:station:SCCF:13:1,2013-07-06T02:00:00Z,26.5255,-82.0032,2.21,5.94,1111122 
SCCF RECON,ioos:station:SCCF:13:1,2013-07-06T03:00:00Z,26.5255,-82.0032,2.283,5.87,1111122 
SCCF RECON,ioos:station:SCCF:13:1,2013-07-06T04:00:00Z,26.5255,-82.0032,2.38,5.73,1111122 
SCCF RECON,ioos:station:SCCF:13:1,2013-07-06T05:00:00Z,26.5255,-82.0032,2.41,5.59,1111122 
SCCF RECON,ioos:station:SCCF:13:1,2013-07-06T06:00:00Z,26.5255,-82.0032,2.41,5.61,1111122 
SCCF RECON,ioos:station:SCCF:13:1,2013-07-06T07:00:00Z,26.5255,-82.0032,2.41,5.34,1111122 
SCCF RECON,ioos:station:SCCF:13:1,2013-07-06T08:00:00Z,26.5255,-82.0032,2.38,5.2,1111122 
SCCF RECON,ioos:station:SCCF:13:1,2013-07-06T09:00:00Z,26.5255,-82.0032,2.327,5.4,1111122 
SCCF RECON,ioos:station:SCCF:13:1,2013-07-06T10:00:00Z,26.5255,-82.0032,2.3,4.84,1111122 
SCCF RECON,ioos:station:SCCF:13:1,2013-07-06T11:00:00Z,26.5255,-82.0032,2.311,5.57,1111122 
SCCF RECON,ioos:station:SCCF:13:1,2013-07-06T12:00:00Z,26.5255,-82.0032,2.35,5.2,1111122 
SCCF RECON,ioos:station:SCCF:13:1,2013-07-06T13:00:00Z,26.5255,-82.0032,2.44,4.19,1111122 
SCCF RECON,ioos:station:SCCF:13:1,2013-07-06T14:00:00Z,26.5255,-82.0032,2.527,4.8,1111122 
SCCF RECON,ioos:station:SCCF:13:1,2013-07-06T15:00:00Z,26.5255,-82.0032,2.582,4.85,1111122 
SCCF RECON,ioos:station:SCCF:13:1,2013-07-06T16:00:00Z,26.5255,-82.0032,2.619,5.68,1111122 
SCCF RECON,ioos:station:SCCF:13:1,2013-07-06T17:00:00Z,26.5255,-82.0032,2.621,5.86,1111122 
SCCF RECON,ioos:station:SCCF:13:1,2013-07-06T18:00:00Z,26.5255,-82.0032,2.59,5.16,1111122 
SCCF RECON,ioos:station:SCCF:13:1,2013-07-06T19:00:00Z,26.5255,-82.0032,2.51,5.98,1111122 
SCCF RECON,ioos:station:SCCF:13:1,2013-07-06T20:00:00Z,26.5255,-82.0032,2.39,5.24,1111122 
SCCF RECON,ioos:station:SCCF:13:1,2013-07-06T21:00:00Z,26.5255,-82.0032,2.269,6.4,1111122 
SCCF RECON,ioos:station:SCCF:13:1,2013-07-06T22:00:00Z,26.5255,-82.0032,2.158,6.5,1111122 
SCCF RECON,ioos:station:SCCF:13:1,2013-07-06T23:00:00Z,26.5255,-82.0032,2.07,6.58,1111122 
SCCF RECON,ioos:station:SCCF:13:1,2013-07-07T00:00:00Z,26.5255,-82.0032,2.02,6.04,1111122 
SCCF RECON,ioos:station:SCCF:13:1,2013-07-07T01:00:00Z,26.5255,-82.0032,2.07,5.65,1111122 
SCCF RECON,ioos:station:SCCF:13:1,2013-07-07T02:00:00Z,26.5255,-82.0032,2.18,5.56,1111122 
SCCF RECON,ioos:station:SCCF:13:1,2013-07-07T03:00:00Z,26.5255,-82.0032,2.27,5.58,1111122 
SCCF RECON,ioos:station:SCCF:13:1,2013-07-07T04:00:00Z,26.5255,-82.0032,2.33,5.55,1111122 
SCCF RECON,ioos:station:SCCF:13:1,2013-07-07T05:00:00Z,26.5255,-82.0032,2.4,5.67,1111122 
SCCF RECON,ioos:station:SCCF:13:1,2013-07-07T06:00:00Z,26.5255,-82.0032,2.42,5.82,1111122 
SCCF RECON,ioos:station:SCCF:13:1,2013-07-07T07:00:00Z,26.5255,-82.0032,2.42,5.7,1111122 
SCCF RECON,ioos:station:SCCF:13:1,2013-07-07T08:00:00Z,26.5255,-82.0032,2.38,5.67,1111122 
SCCF RECON,ioos:station:SCCF:13:1,2013-07-07T09:00:00Z,26.5255,-82.0032,2.34,5.39,1111122 
SCCF RECON,ioos:station:SCCF:13:1,2013-07-07T10:00:00Z,26.5255,-82.0032,2.3,4.88,1111122 
SCCF RECON,ioos:station:SCCF:13:1,2013-07-07T11:00:00Z,26.5255,-82.0032,2.25,5.23,1111122 
SCCF RECON,ioos:station:SCCF:13:1,2013-07-07T12:00:00Z,26.5255,-82.0032,2.271,5.44,1111122 
SCCF RECON,ioos:station:SCCF:13:1,2013-07-07T13:00:00Z,26.5255,-82.0032,2.34,5.59,1111122 
SCCF RECON,ioos:station:SCCF:13:1,2013-07-07T14:00:00Z,26.5255,-82.0032,2.44,4.33,1111122 
SCCF RECON,ioos:station:SCCF:13:1,2013-07-07T15:00:00Z,26.5255,-82.0032,2.522,4.8,1111122 
SCCF RECON,ioos:station:SCCF:13:1,2013-07-07T16:00:00Z,26.5255,-82.0032,2.562,5.3,1111122 
SCCF RECON,ioos:station:SCCF:13:1,2013-07-07T17:00:00Z,26.5255,-82.0032,2.595,5.94,1111122 
SCCF RECON,ioos:station:SCCF:13:1,2013-07-07T18:00:00Z,26.5255,-82.0032,2.601,6.45,1111122 
SCCF RECON,ioos:station:SCCF:13:1,2013-07-07T19:00:00Z,26.5255,-82.0032,2.549,6.02,1111122 
SCCF RECON,ioos:station:SCCF:13:1,2013-07-07T20:00:00Z,26.5255,-82.0032,2.43,6.28,1111122 
SCCF RECON,ioos:station:SCCF:13:1,2013-07-07T21:00:00Z,26.5255,-82.0032,2.31,6.18,1111122 
SCCF RECON,ioos:station:SCCF:13:1,2013-07-07T22:00:00Z,26.5255,-82.0032,2.194,6.33,1111122 
SCCF RECON,ioos:station:SCCF:13:1,2013-07-07T23:00:00Z,26.5255,-82.0032,2.115,6.13,1111122 
SCCF RECON,ioos:station:SCCF:13:1,2013-07-08T00:00:00Z,26.5255,-82.0032,2.029,6.07,1111122 
SCCF RECON,ioos:station:SCCF:13:1,2013-07-08T01:00:00Z,26.5255,-82.0032,1.99,5.65,1111122 
SCCF RECON,ioos:station:SCCF:13:1,2013-07-08T02:00:00Z,26.5255,-82.0032,2.1,5.34,1111122 
SCCF RECON,ioos:station:SCCF:13:1,2013-07-08T03:00:00Z,26.5255,-82.0032,2.25,5.39,1111122 
SCCF RECON,ioos:station:SCCF:13:1,2013-07-08T04:00:00Z,26.5255,-82.0032,2.36,5.52,1111122 
SCCF RECON,ioos:station:SCCF:13:1,2013-07-08T05:00:00Z,26.5255,-82.0032,2.4,5.59,1111122 
SCCF RECON,ioos:station:SCCF:13:1,2013-07-08T06:00:00Z,26.5255,-82.0032,2.459,5.85,1111122 
SCCF RECON,ioos:station:SCCF:13:1,2013-07-08T07:00:00Z,26.5255,-82.0032,2.49,5.91,1111122 
SCCF RECON,ioos:station:SCCF:13:1,2013-07-08T08:00:00Z,26.5255,-82.0032,2.46,5.7,1111122 
SCCF RECON,ioos:station:SCCF:13:1,2013-07-08T09:00:00Z,26.5255,-82.0032,2.37,5.65,1111122 
SCCF RECON,ioos:station:SCCF:13:1,2013-07-08T10:00:00Z,26.5255,-82.0032,2.32,5.46,1111122 
SCCF RECON,ioos:station:SCCF:13:1,2013-07-08T11:00:00Z,26.5255,-82.0032,2.29,5.14,1111122 
SCCF RECON,ioos:station:SCCF:13:1,2013-07-08T12:00:00Z,26.5255,-82.0032,2.26,5.2,1111122 
SCCF RECON,ioos:station:SCCF:13:1,2013-07-08T13:00:00Z,26.5255,-82.0032,2.3,5.32,1111122 
SCCF RECON,ioos:station:SCCF:13:1,2013-07-08T14:00:00Z,26.5255,-82.0032,2.39,4.53,1111122 
SCCF RECON,ioos:station:SCCF:13:1,2013-07-08T15:00:00Z,26.5255,-82.0032,2.51,4.73,1111122 
SCCF RECON,ioos:station:SCCF:13:1,2013-07-08T16:00:00Z,26.5255,-82.0032,2.594,5.03,1111122 
SCCF RECON,ioos:station:SCCF:13:1,2013-07-08T17:00:00Z,26.5255,-82.0032,2.64,5.78,1111122 
SCCF RECON,ioos:station:SCCF:13:1,2013-07-08T18:00:00Z,26.5255,-82.0032,2.665,6.56,1111122 
SCCF RECON,ioos:station:SCCF:13:1,2013-07-08T19:00:00Z,26.5255,-82.0032,2.64,7.02,1111122 
SCCF RECON,ioos:station:SCCF:13:1,2013-07-08T20:00:00Z,26.5255,-82.0032,2.562,6.53,1111122 
SCCF RECON,ioos:station:SCCF:13:1,2013-07-08T21:00:00Z,26.5255,-82.0032,2.42,6.09,1111122 
SCCF RECON,ioos:station:SCCF:13:1,2013-07-08T22:00:00Z,26.5255,-82.0032,2.28,6.29,1111122 
SCCF RECON,ioos:station:SCCF:13:1,2013-07-08T23:00:00Z,26.5255,-82.0032,2.19,6.01,1111122 
SCCF RECON,ioos:station:SCCF:13:1,2013-07-09T00:00:00Z,26.5255,-82.0032,2.11,5.9,1111122 
SCCF RECON,ioos:station:SCCF:13:1,2013-07-09T01:00:00Z,26.5255,-82.0032,2.042,5.78,1111122 
SCCF RECON,ioos:station:SCCF:13:1,2013-07-09T02:00:00Z,26.5255,-82.0032,2.05,5.43,1111122 
SCCF RECON,ioos:station:SCCF:13:1,2013-07-09T03:00:00Z,26.5255,-82.0032,2.17,5.4,1111122 
SCCF RECON,ioos:station:SCCF:13:1,2013-07-09T04:00:00Z,26.5255,-82.0032,2.32,5.37,1111122 
SCCF RECON,ioos:station:SCCF:13:1,2013-07-09T05:00:00Z,26.5255,-82.0032,2.4,4.99,1111122 
SCCF RECON,ioos:station:SCCF:13:1,2013-07-09T06:00:00Z,26.5255,-82.0032,2.44,5.27,1111122 
SCCF RECON,ioos:station:SCCF:13:1,2013-07-09T07:00:00Z,26.5255,-82.0032,2.48,5.49,1111122 
SCCF RECON,ioos:station:SCCF:13:1,2013-07-09T08:00:00Z,26.5255,-82.0032,2.49,5.29,1111122 
SCCF RECON,ioos:station:SCCF:13:1,2013-07-09T09:00:00Z,26.5255,-82.0032,2.45,5.18,1111122 
SCCF RECON,ioos:station:SCCF:13:1,2013-07-09T10:00:00Z,26.5255,-82.0032,2.37,5.3,1111122 
SCCF RECON,ioos:station:SCCF:13:1,2013-07-09T11:00:00Z,26.5255,-82.0032,2.31,4.61,1111122 
SCCF RECON,ioos:station:SCCF:13:1,2013-07-09T12:00:00Z,26.5255,-82.0032,2.28,4.76,1111122 
SCCF RECON,ioos:station:SCCF:13:1,2013-07-09T13:00:00Z,26.5255,-82.0032,2.283,4.91,1111122 
SCCF RECON,ioos:station:SCCF:13:1,2013-07-09T14:00:00Z,26.5255,-82.0032,2.37,5.16,1111122 
SCCF RECON,ioos:station:SCCF:13:1,2013-07-09T15:00:00Z,26.5255,-82.0032,2.5,4.19,1111122 
SCCF RECON,ioos:station:SCCF:13:1,2013-07-09T16:00:00Z,26.5255,-82.0032,2.577,4.55,1111122 
SCCF RECON,ioos:station:SCCF:13:1,2013-07-09T17:00:00Z,26.5255,-82.0032,2.621,5.24,1111122 
SCCF RECON,ioos:station:SCCF:13:1,2013-07-09T18:00:00Z,26.5255,-82.0032,2.709,6.13,1111122 
SCCF RECON,ioos:station:SCCF:13:1,2013-07-09T19:00:00Z,26.5255,-82.0032,2.679,6.14,1111122 
SCCF RECON,ioos:station:SCCF:13:1,2013-07-09T20:00:00Z,26.5255,-82.0032,2.57,5.88,1111122 
SCCF RECON,ioos:station:SCCF:13:1,2013-07-09T21:00:00Z,26.5255,-82.0032,2.438,5.89,1111122 
SCCF RECON,ioos:station:SCCF:13:1,2013-07-09T22:00:00Z,26.5255,-82.0032,2.33,5.23,1111122 
SCCF RECON,ioos:station:SCCF:13:1,2013-07-09T23:00:00Z,26.5255,-82.0032,2.23,5.56,1111122 
SCCF RECON,ioos:station:SCCF:13:1,2013-07-10T00:00:00Z,26.5255,-82.0032,2.133,5.56,1111122 
SCCF RECON,ioos:station:SCCF:13:1,2013-07-10T01:00:00Z,26.5255,-82.0032,2.05,5.33,1111122 
SCCF RECON,ioos:station:SCCF:13:1,2013-07-10T02:00:00Z,26.5255,-82.0032,2.02,5.04,1111122 
SCCF RECON,ioos:station:SCCF:13:1,2013-07-10T03:00:00Z,26.5255,-82.0032,2.09,4.95,1111122 
SCCF RECON,ioos:station:SCCF:13:1,2013-07-10T04:00:00Z,26.5255,-82.0032,2.25,4.88,1111122 
SCCF RECON,ioos:station:SCCF:13:1,2013-07-10T05:00:00Z,26.5255,-82.0032,2.35,4.84,1111122 
SCCF RECON,ioos:station:SCCF:13:1,2013-07-10T06:00:00Z,26.5255,-82.0032,2.43,4.96,1111122 
SCCF RECON,ioos:station:SCCF:13:1,2013-07-10T07:00:00Z,26.5255,-82.0032,2.475,4.93,1111122 
SCCF RECON,ioos:station:SCCF:13:1,2013-07-10T08:00:00Z,26.5255,-82.0032,2.47,4.97,1111122 
SCCF RECON,ioos:station:SCCF:13:1,2013-07-10T09:00:00Z,26.5255,-82.0032,2.48,4.83,1111122 
SCCF RECON,ioos:station:SCCF:13:1,2013-07-10T10:00:00Z,26.5255,-82.0032,2.44,4.79,1111122 
SCCF RECON,ioos:station:SCCF:13:1,2013-07-10T11:00:00Z,26.5255,-82.0032,2.35,4.84,1111122 
SCCF RECON,ioos:station:SCCF:13:1,2013-07-10T12:00:00Z,26.5255,-82.0032,2.288,4.37,1111122 
SCCF RECON,ioos:station:SCCF:13:1,2013-07-10T13:00:00Z,26.5255,-82.0032,2.241,4.32,1111122 
SCCF RECON,ioos:station:SCCF:13:1,2013-07-10T14:00:00Z,26.5255,-82.0032,2.28,4.43,1111122 
SCCF RECON,ioos:station:SCCF:13:1,2013-07-10T15:00:00Z,26.5255,-82.0032,2.38,4.19,1111122 
SCCF RECON,ioos:station:SCCF:13:1,2013-07-10T16:00:00Z,26.5255,-82.0032,2.493,3.92,1111122 
SCCF RECON,ioos:station:SCCF:13:1,2013-07-10T17:00:00Z,26.5255,-82.0032,2.571,4.48,1111122 
SCCF RECON,ioos:station:SCCF:13:1,2013-07-10T18:00:00Z,26.5255,-82.0032,2.64,5.21,1111122 
SCCF RECON,ioos:station:SCCF:13:1,2013-07-10T19:00:00Z,26.5255,-82.0032,2.63,5.87,1111122 
SCCF RECON,ioos:station:SCCF:13:1,2013-07-10T20:00:00Z,26.5255,-82.0032,2.59,5.37,1111122 
SCCF RECON,ioos:station:SCCF:13:1,2013-07-10T21:00:00Z,26.5255,-82.0032,2.509,5.31,1111122 
SCCF RECON,ioos:station:SCCF:13:1,2013-07-10T22:00:00Z,26.5255,-82.0032,2.37,4.95,1111122 
SCCF RECON,ioos:station:SCCF:13:1,2013-07-10T23:00:00Z,26.5255,-82.0032,2.258,5.33,1111122 
SCCF RECON,ioos:station:SCCF:13:1,2013-07-11T00:00:00Z,26.5255,-82.0032,2.171,5.58,1111122 
SCCF RECON,ioos:station:SCCF:13:1,2013-07-11T01:00:00Z,26.5255,-82.0032,2.094,5.18,1111122 
SCCF RECON,ioos:station:SCCF:13:1,2013-07-11T02:00:00Z,26.5255,-82.0032,2.03,5.02,1111122 
SCCF RECON,ioos:station:SCCF:13:1,2013-07-11T03:00:00Z,26.5255,-82.0032,2.03,4.89,1111122 
SCCF RECON,ioos:station:SCCF:13:1,2013-07-11T04:00:00Z,26.5255,-82.0032,2.15,4.81,1111122 
SCCF RECON,ioos:station:SCCF:13:1,2013-07-11T05:00:00Z,26.5255,-82.0032,2.28,4.7,1111122 
SCCF RECON,ioos:station:SCCF:13:1,2013-07-11T06:00:00Z,26.5255,-82.0032,2.37,4.71,1111122 
SCCF RECON,ioos:station:SCCF:13:1,2013-07-11T07:00:00Z,26.5255,-82.0032,2.44,4.49,1111122 
SCCF RECON,ioos:station:SCCF:13:1,2013-07-11T08:00:00Z,26.5255,-82.0032,2.49,4.79,1111122 
SCCF RECON,ioos:station:SCCF:13:1,2013-07-11T09:00:00Z,26.5255,-82.0032,2.49,4.87,1111122 
SCCF RECON,ioos:station:SCCF:13:1,2013-07-11T10:00:00Z,26.5255,-82.0032,2.41,4.91,1111122 
SCCF RECON,ioos:station:SCCF:13:1,2013-07-11T11:00:00Z,26.5255,-82.0032,2.35,4.74,1111122 
SCCF RECON,ioos:station:SCCF:13:1,2013-07-11T12:00:00Z,26.5255,-82.0032,2.3,4.04,1111122 
SCCF RECON,ioos:station:SCCF:13:1,2013-07-11T13:00:00Z,26.5255,-82.0032,2.25,4.3,1111122 
SCCF RECON,ioos:station:SCCF:13:1,2013-07-11T14:00:00Z,26.5255,-82.0032,2.24,4.29,1111122 
SCCF RECON,ioos:station:SCCF:13:1,2013-07-11T15:00:00Z,26.5255,-82.0032,2.313,4.47,1111122 
SCCF RECON,ioos:station:SCCF:13:1,2013-07-11T16:00:00Z,26.5255,-82.0032,2.407,3.62,1111122 
SCCF RECON,ioos:station:SCCF:13:1,2013-07-11T17:00:00Z,26.5255,-82.0032,2.506,3.61,1111122 
SCCF RECON,ioos:station:SCCF:13:1,2013-07-11T18:00:00Z,26.5255,-82.0032,2.57,4.26,1111122 
SCCF RECON,ioos:station:SCCF:13:1,2013-07-11T19:00:00Z,26.5255,-82.0032,2.6,5.35,1111122 
SCCF RECON,ioos:station:SCCF:13:1,2013-07-11T20:00:00Z,26.5255,-82.0032,2.6,6.14,1111122 
SCCF RECON,ioos:station:SCCF:13:1,2013-07-11T21:00:00Z,26.5255,-82.0032,2.541,5.25,1111122 